Wind_Speed
14 15 16 15 16 18 18 20 23 26 29 30 31 33 33 31 31 30 29 30 31 31 30 30 29 29 30 30 29 27 26 25 23 22 21 21 19 19 18 17 18 18 17 16 15 15 15 15 15 14 14 13 14 14 13 13 13 11 10 10 9 8 8
13 14 15 16 16 18 19 21 25 27 29 30 31 32 33 32 32 31 29 30 31 31 31 32 31 30 29 30 29 28 27 26 24 22 21 21 19 19 19 18 18 18 18 17 15 14 15 15 15 15 15 14 14 14 14 14 13 12 11 10 10 9 8
13 13 15 16 16 18 19 20 24 28 30 31 32 33 34 33 33 33 31 30 31 31 31 32 32 30 30 30 29 28 28 27 25 24 23 21 21 21 20 19 18 18 17 17 16 15 15 15 15 16 15 14 14 14 14 14 14 13 12 11 11 10 9
15 15 15 17 18 18 18 19 23 27 29 32 34 34 35 35 34 33 32 31 32 33 32 32 32 31 31 31 29 28 28 28 27 26 24 22 21 20 20 19 19 18 17 17 17 16 15 15 15 15 15 15 14 14 14 14 14 14 13 13 12 11 10
17 17 15 16 17 17 17 19 23 28 30 32 33 33 34 35 34 33 33 32 33 34 33 32 32 31 31 30 29 27 28 29 28 26 25 23 22 20 20 20 19 19 19 18 17 17 16 16 15 15 15 15 15 14 14 14 14 14 14 13 12 12 11
16 16 15 15 16 17 19 20 24 30 32 33 34 34 34 35 35 34 33 32 32 32 32 32 32 32 31 31 29 28 28 29 28 27 26 25 24 22 21 21 20 19 20 19 18 18 18 18 17 16 15 15 15 15 15 15 14 14 14 14 13 12 11
14 14 15 15 16 17 19 20 24 30 31 31 31 31 32 33 34 33 32 32 33 32 33 33 33 32 32 31 30 29 29 29 28 28 27 25 24 23 21 21 21 20 19 19 19 18 18 18 18 18 17 16 15 15 15 15 15 14 14 14 14 13 12
14 14 15 16 16 17 19 19 22 26 28 28 29 30 32 33 33 33 34 33 33 33 33 34 34 33 32 31 31 31 30 29 28 28 27 26 25 24 22 21 21 20 19 19 19 19 19 19 18 19 18 17 16 16 15 15 15 15 14 14 14 14 13
15 15 15 16 17 17 17 17 19 23 26 28 29 31 32 32 32 34 35 34 33 34 35 34 33 33 31 31 31 31 30 29 28 28 28 27 25 24 23 22 22 21 21 20 20 19 20 19 19 18 19 18 17 17 16 16 16 16 15 15 15 15 14
14 16 16 16 16 15 14 15 17 19 22 25 28 29 31 32 32 33 33 33 33 34 35 34 33 32 31 31 31 31 30 30 29 28 28 27 26 26 25 23 22 22 22 22 21 20 20 20 19 19 19 19 18 18 18 17 17 17 16 16 16 16 15
7 10 12 12 13 12 13 15 16 16 18 23 27 29 31 32 32 32 33 34 33 33 34 33 32 32 32 31 31 31 30 30 29 29 29 28 27 27 26 25 23 22 23 23 22 21 20 20 20 20 20 20 19 19 19 19 18 18 17 17 16 16 15
4 6 7 9 10 11 12 13 15 15 17 22 26 28 29 30 31 31 32 33 33 32 33 33 32 32 32 31 31 31 31 31 30 29 29 29 28 27 26 25 24 23 23 23 23 22 21 20 20 21 21 21 20 20 20 19 19 19 18 18 17 16 15
5 6 7 9 10 11 12 12 15 17 18 22 26 27 28 29 31 31 31 32 32 31 32 33 32 32 31 31 31 31 31 31 31 30 29 29 28 27 26 26 25 24 23 23 23 23 22 22 21 21 22 22 21 21 20 19 19 19 19 19 18 17 16
4 6 8 10 11 13 14 14 16 17 18 22 26 27 27 28 30 30 30 31 31 31 32 32 33 32 31 31 31 31 32 32 30 30 29 28 27 26 25 26 26 25 24 23 23 23 23 23 22 21 21 22 22 21 20 20 19 19 19 19 19 18 17
5 5 7 11 13 15 16 16 16 17 18 21 25 28 27 27 28 29 29 31 32 32 32 32 32 32 31 31 31 31 31 31 30 29 28 27 27 26 26 25 25 25 24 23 23 23 23 23 22 21 21 21 21 21 20 20 20 20 21 20 19 19 18
7 6 4 6 11 14 16 17 17 18 18 20 23 27 27 27 28 30 30 31 32 33 32 32 32 33 32 31 31 30 30 30 29 28 28 28 27 27 26 25 25 25 25 24 23 23 22 22 22 22 21 20 20 20 20 21 21 22 24 23 21 19 18
9 8 7 5 6 10 13 16 17 18 18 20 24 28 29 28 29 31 30 31 32 33 33 33 33 33 33 31 30 29 29 29 28 28 28 28 27 27 27 26 25 25 25 24 23 22 22 22 22 22 21 20 20 20 20 21 21 24 27 27 25 21 17
12 11 11 9 7 7 10 13 16 18 19 22 26 29 30 29 29 30 31 32 34 34 33 33 32 32 31 30 29 29 29 29 28 28 28 28 27 27 27 26 25 25 25 24 23 22 21 21 22 22 21 20 20 20 20 20 22 25 28 28 28 26 21
14 14 14 13 11 10 11 12 13 17 20 23 27 31 33 32 31 32 33 33 33 32 32 32 31 30 30 29 29 29 29 28 28 28 28 28 27 26 26 26 26 25 25 24 23 22 21 21 21 21 21 21 20 20 20 20 21 25 28 28 29 29 26
15 15 15 14 14 13 12 12 13 16 21 25 29 32 33 32 30 29 29 30 30 31 31 30 29 28 29 29 29 29 29 28 28 28 27 27 26 26 26 27 27 26 24 23 22 22 22 22 21 21 22 22 21 21 21 20 21 24 27 28 28 28 27
15 16 16 15 15 15 13 13 14 16 20 26 29 30 30 30 28 27 28 29 30 31 30 29 28 27 28 28 28 28 28 28 28 27 27 26 26 26 26 26 26 25 24 23 22 22 22 22 22 22 22 22 22 22 22 22 23 24 25 26 26 26 26
15 16 17 16 16 16 15 15 17 18 21 24 26 27 29 30 30 28 28 29 30 30 29 28 27 26 27 28 28 28 29 29 28 28 27 27 27 27 27 26 25 25 24 22 22 21 21 21 22 22 22 23 23 23 23 23 24 26 27 27 26 24 25
16 17 17 17 18 19 19 19 19 20 20 22 25 27 28 29 29 29 28 28 29 29 29 28 27 27 27 28 28 29 29 29 28 27 27 26 27 27 26 25 25 24 24 23 22 22 21 21 22 23 24 24 24 24 24 23 24 27 28 29 28 26 25
15 16 17 17 18 20 19 18 18 18 20 22 25 27 27 28 29 29 28 27 28 29 28 28 28 27 27 28 28 28 28 28 28 27 27 26 26 26 26 25 25 25 24 24 24 23 22 22 22 22 23 24 24 24 23 23 24 26 28 29 29 28 27
14 15 17 17 17 17 16 14 15 17 19 22 25 26 28 29 30 29 27 27 28 28 27 28 28 28 28 28 27 27 27 27 27 27 27 27 26 26 25 25 24 24 23 23 23 23 22 22 21 21 22 22 23 24 25 24 23 26 29 29 30 30 29
12 14 15 15 16 16 13 10 13 16 19 23 25 27 29 30 30 28 26 27 27 27 28 29 29 28 27 26 26 26 26 26 27 27 27 26 26 25 24 24 23 22 22 22 22 21 21 22 21 21 21 21 21 23 25 25 24 25 28 29 30 31 30
12 13 14 15 14 12 9 9 13 15 18 22 24 26 28 29 28 26 26 27 27 28 29 28 27 26 25 25 26 26 26 26 26 27 26 24 24 24 24 23 23 22 22 21 21 21 21 21 21 20 20 20 20 21 22 23 24 25 27 29 29 30 31
12 12 14 14 11 9 6 7 12 15 18 20 23 26 28 28 26 24 25 26 27 28 27 25 25 26 25 26 26 26 26 25 25 25 24 23 23 23 23 23 22 21 21 20 20 20 20 19 19 19 18 18 19 20 20 21 23 24 27 29 29 30 32
12 13 14 13 10 8 6 4 9 13 17 20 22 25 26 26 25 23 24 26 25 25 25 24 25 26 25 25 26 25 25 25 24 24 23 23 23 23 22 22 21 20 20 20 19 19 19 19 19 19 19 19 20 20 21 22 23 24 26 28 29 30 31
13 13 13 14 12 10 6 2 5 9 13 17 20 21 22 23 23 21 22 23 22 23 24 23 24 24 24 24 25 24 24 24 24 23 22 22 23 22 21 22 21 20 20 20 19 19 20 20 20 20 20 20 20 20 21 22 23 24 26 28 29 29 30
14 15 15 16 17 15 8 1 3 3 6 11 15 16 18 19 20 19 18 19 20 23 23 22 22 23 23 23 23 23 23 22 22 22 22 22 23 23 22 22 21 21 20 20 21 21 20 19 20 20 19 19 19 20 20 21 21 22 25 27 27 28 29
15 17 17 18 19 18 12 4 3 4 5 6 8 10 12 14 15 15 16 16 19 21 21 20 21 22 21 22 22 22 22 22 21 21 22 22 22 22 21 22 21 21 21 21 21 21 20 20 20 20 20 19 19 20 20 20 21 20 21 23 24 26 28
16 17 17 19 20 19 16 11 7 5 6 6 6 6 8 9 11 12 14 15 17 19 19 19 20 20 20 20 21 21 22 21 21 21 21 22 22 21 21 21 21 21 21 21 21 21 21 20 20 20 20 19 19 20 20 20 20 20 18 19 19 22 25
15 17 19 21 22 21 19 17 15 12 10 9 7 6 6 6 7 10 12 13 15 16 17 17 18 18 19 19 19 19 20 20 20 20 20 20 21 20 19 21 21 21 21 22 21 21 21 22 21 21 20 20 19 19 19 19 19 20 18 17 17 17 20
15 18 20 21 20 20 19 18 18 17 16 14 12 10 9 8 7 7 8 9 11 13 14 16 17 17 17 18 18 17 18 19 19 19 18 18 19 18 17 19 20 20 20 20 21 22 21 21 21 21 21 21 20 19 18 18 18 19 19 18 16 15 15
16 19 21 21 19 20 20 20 20 20 19 18 16 15 14 13 10 7 5 6 9 12 13 14 15 15 16 16 16 16 16 17 18 18 17 17 17 16 16 17 17 18 18 17 19 23 23 19 18 17 17 18 17 16 16 14 11 11 15 16 17 17 16
17 16 17 19 20 20 20 20 20 21 20 19 18 17 16 16 15 12 9 5 4 9 13 13 13 14 14 14 14 15 15 14 14 15 16 16 15 14 15 15 14 15 17 15 14 19 23 22 20 17 15 14 11 9 12 12 9 8 11 13 16 18 17
19 16 16 19 20 20 20 20 19 19 19 19 18 17 17 17 16 15 11 9 6 3 10 13 12 12 12 12 13 13 13 13 13 13 14 16 13 11 13 15 12 11 14 14 12 14 18 22 22 20 18 17 13 9 9 11 12 12 11 11 13 14 14
Wind_Direction
196 193 192 192 192 195 194 190 189 189 189 189 190 191 191 191 191 190 190 188 187 186 186 187 189 192 198 202 204 205 207 209 209 209 210 209 207 206 207 207 208 208 210 213 213 213 214 216 218 219 219 220 222 223 224 227 229 228 227 228 229 229 228
199 195 194 193 194 197 195 191 189 189 190 190 190 190 191 191 190 190 190 189 188 186 185 186 188 191 197 201 202 204 205 207 209 209 210 211 208 205 205 206 207 207 209 213 212 209 210 213 216 219 220 224 226 226 226 228 229 225 222 223 225 226 226
203 198 195 194 196 197 194 191 191 191 191 190 189 190 191 190 189 190 189 188 187 186 185 187 188 191 196 199 200 202 204 206 208 208 210 211 208 206 204 205 207 208 210 212 211 209 210 211 213 217 220 224 228 228 227 228 228 226 223 219 222 225 222
207 203 198 197 198 197 193 191 192 193 193 192 191 190 189 189 188 189 189 188 187 186 186 186 188 190 194 196 197 199 202 205 207 208 210 211 210 205 203 204 206 208 209 211 211 211 211 210 211 213 216 221 224 225 226 227 226 225 224 221 223 224 221
207 205 201 199 199 196 194 194 193 193 194 195 193 190 189 188 187 189 190 190 189 189 187 185 186 189 192 194 195 197 200 204 206 208 209 211 211 206 204 205 206 207 209 209 210 210 209 209 209 211 213 217 220 222 224 226 226 225 223 222 222 223 221
208 204 201 199 198 196 196 196 195 194 195 194 192 190 189 188 188 189 190 190 190 190 188 186 186 187 190 193 195 196 198 201 204 207 208 209 210 208 206 207 208 207 208 208 208 208 208 209 211 211 213 216 218 219 221 223 225 224 224 223 221 220 221
209 203 201 198 197 198 197 198 197 196 195 193 191 190 189 190 190 190 190 190 190 190 189 189 188 187 189 191 194 195 196 198 201 204 206 207 207 207 207 207 208 208 207 207 207 207 208 210 212 213 214 216 216 216 218 219 220 221 221 222 219 216 218
209 201 201 200 198 200 198 197 198 195 192 191 190 190 191 192 191 190 191 191 190 190 191 191 190 188 188 189 192 194 195 196 198 200 202 203 203 204 206 206 207 207 206 207 207 207 208 210 212 213 214 215 215 214 215 214 215 218 219 219 218 215 216
209 200 202 204 203 202 199 195 194 191 188 190 191 191 191 192 191 192 192 191 190 191 192 192 191 189 187 188 190 192 192 194 196 197 198 200 201 203 205 206 206 206 205 207 208 207 209 211 212 213 212 213 213 213 213 213 213 215 217 217 217 216 217
211 202 201 207 208 205 199 190 187 188 188 189 191 191 191 192 193 193 192 191 192 193 192 191 190 189 187 188 189 190 191 193 194 196 198 200 202 203 205 206 205 205 205 207 208 208 209 211 212 212 211 211 212 211 212 212 212 213 214 216 216 217 218
217 203 204 212 212 204 195 187 184 187 187 187 189 190 190 192 193 193 193 193 193 192 190 190 190 189 188 188 189 189 190 192 194 196 199 201 203 204 205 206 205 204 205 206 208 208 208 210 211 211 211 210 211 212 212 212 212 212 213 215 217 217 218
206 194 203 214 211 202 196 189 185 186 185 186 189 190 190 191 192 193 193 193 192 190 189 189 189 188 188 188 189 189 190 192 194 197 199 200 202 204 204 205 205 204 204 205 207 208 208 209 209 209 210 211 212 212 212 212 212 212 213 214 216 217 218
204 198 199 203 203 198 195 190 187 187 187 188 190 191 191 191 192 193 192 192 191 189 187 188 188 188 188 189 189 189 190 191 194 196 198 199 201 203 203 204 204 204 204 205 205 206 208 209 208 208 209 211 213 213 212 212 212 211 212 213 214 215 217
226 216 198 192 195 195 194 192 189 188 188 188 190 191 191 191 192 192 192 191 190 188 187 187 187 188 188 189 190 189 190 191 192 194 197 197 199 201 202 202 203 204 204 204 205 207 208 209 208 208 209 211 213 214 213 212 212 211 211 212 212 214 216
266 243 206 192 191 192 194 193 190 189 189 189 190 191 191 191 191 191 190 190 190 189 188 186 186 187 187 189 190 189 188 189 190 192 194 195 196 198 200 200 200 201 202 203 205 207 209 210 210 209 210 211 212 212 212 213 213 212 211 210 210 212 216
293 286 260 211 198 196 197 196 194 192 190 190 192 193 192 191 190 190 189 189 189 189 188 186 185 186 187 189 190 188 186 186 187 190 191 193 194 195 197 198 198 199 201 203 205 207 208 209 211 211 211 210 210 210 211 213 214 215 215 214 211 210 213
312 311 315 298 240 215 207 202 199 195 192 192 193 194 194 192 190 189 188 188 189 189 187 185 185 186 187 188 187 185 183 184 186 188 190 192 192 193 194 196 197 198 200 203 205 206 207 208 210 212 213 212 211 211 211 214 216 219 222 223 220 214 210
321 318 318 316 304 273 238 219 206 197 196 196 194 194 194 192 189 189 188 188 189 189 187 186 186 185 185 185 183 182 182 183 185 187 189 190 191 191 193 194 196 198 200 202 204 204 206 208 209 211 214 214 215 214 215 216 218 222 227 230 229 224 217
319 318 317 313 308 294 270 249 223 205 200 197 194 195 195 192 190 189 189 187 186 186 187 187 186 185 184 183 182 182 182 183 185 187 188 189 190 190 192 194 196 198 200 202 204 204 206 208 209 211 213 215 217 218 220 222 222 226 231 233 234 232 226
316 314 312 308 303 297 284 268 246 222 207 199 196 196 194 191 190 189 185 182 182 184 185 185 185 184 183 183 182 182 183 183 185 188 188 189 189 190 192 195 198 199 201 202 204 204 207 208 209 211 212 214 217 221 224 227 226 229 234 236 236 236 232
312 309 307 304 302 299 290 272 253 234 216 205 199 194 191 190 188 185 181 179 180 182 183 183 184 184 183 184 184 183 183 184 186 188 188 188 190 192 195 198 199 201 202 204 206 207 208 209 210 211 212 214 217 222 226 229 229 230 234 237 237 236 234
308 306 304 302 300 295 286 270 253 238 223 210 200 192 190 189 186 182 180 178 178 179 181 180 182 184 184 185 186 185 185 186 187 188 189 190 192 195 198 200 201 202 203 205 208 209 209 210 212 212 214 216 217 221 226 228 228 228 231 235 236 234 232
304 302 301 300 297 291 281 266 251 237 222 207 198 193 190 187 183 179 178 177 176 178 179 180 182 184 185 186 187 187 187 188 189 189 190 192 194 197 199 200 201 201 202 204 208 209 209 210 212 214 216 217 217 220 224 227 228 228 231 233 233 230 227
301 300 300 299 297 292 277 257 242 229 213 199 194 191 186 182 179 175 174 175 176 177 179 181 184 185 186 188 189 187 187 189 189 190 191 193 196 199 199 200 200 201 202 204 208 210 210 210 212 214 216 218 218 219 221 226 228 228 230 232 232 229 225
303 302 301 300 301 296 279 250 230 219 204 193 189 184 178 176 174 172 172 174 176 178 181 186 188 188 188 189 188 188 188 189 190 190 192 194 197 199 199 200 201 202 203 206 209 211 211 212 213 216 217 219 220 220 221 226 229 229 230 232 232 230 224
311 308 304 307 308 302 284 244 216 206 196 190 186 179 174 173 173 172 174 175 178 183 187 189 189 189 189 188 187 187 187 188 190 191 194 195 196 198 199 200 202 203 203 206 209 211 213 214 215 217 219 220 221 221 222 225 228 230 231 231 232 231 224
327 319 316 319 318 311 287 230 206 203 195 187 180 175 173 173 173 173 174 175 181 189 191 188 186 186 187 186 186 187 188 189 191 192 194 195 195 196 199 201 203 204 204 207 209 211 213 215 216 220 222 222 223 223 224 225 226 229 231 231 232 232 226
345 338 333 331 330 329 306 236 212 205 194 182 176 174 173 173 173 173 173 178 186 189 187 183 182 183 184 185 186 188 189 190 191 192 194 195 194 196 199 201 204 205 205 207 209 210 212 214 216 220 224 224 225 226 227 227 226 228 231 231 232 233 229
354 351 347 343 344 351 341 265 220 206 193 183 179 178 176 174 174 173 177 183 186 183 179 179 180 181 182 183 185 187 188 189 189 190 193 194 194 195 197 199 202 204 203 206 208 209 212 216 218 222 226 228 229 229 231 232 231 230 232 232 233 234 232
354 353 352 353 359 5 358 277 218 206 197 189 184 182 180 179 177 177 182 183 179 175 176 177 178 179 180 182 183 185 187 188 188 190 192 192 191 193 195 196 197 199 200 203 207 211 216 219 220 223 227 229 231 230 229 231 233 234 234 234 234 234 234
353 354 354 359 8 14 14 334 184 180 183 179 178 180 182 181 180 179 180 176 171 171 174 174 175 178 179 180 182 184 185 186 188 190 191 190 190 192 194 194 195 196 198 201 208 214 217 218 219 220 223 227 229 228 228 228 230 233 235 236 237 237 235
353 355 356 358 5 15 24 42 124 132 129 139 157 172 180 185 185 179 173 169 168 170 171 171 174 177 178 180 182 184 185 187 189 190 191 191 192 194 195 195 196 197 198 201 208 213 215 216 217 217 220 223 226 227 228 228 227 229 231 232 234 236 236
354 355 357 358 3 16 30 38 51 85 106 113 128 151 165 176 180 175 168 167 169 170 170 171 174 177 180 182 184 185 188 189 190 191 192 193 195 197 198 199 199 199 198 201 205 208 210 213 215 216 217 220 223 225 227 227 227 227 225 221 222 228 232
355 358 2 2 4 15 30 36 41 53 70 81 92 111 124 134 150 163 166 167 171 175 175 176 179 182 184 185 186 188 191 193 193 193 193 195 197 199 200 201 202 203 202 202 203 204 207 210 213 215 216 217 219 222 224 225 225 225 222 217 212 213 220
355 5 11 8 3 7 19 30 39 47 54 58 65 80 92 95 110 144 160 165 172 178 180 181 183 185 186 187 189 192 193 193 195 196 196 195 196 198 200 200 200 203 206 206 206 209 212 214 214 215 218 221 222 223 225 227 227 225 224 223 217 210 210
358 7 13 13 9 8 12 20 31 40 45 48 55 67 74 71 71 86 115 152 179 186 185 181 182 186 188 189 191 193 193 192 195 197 199 199 195 192 192 194 196 198 202 205 206 210 216 221 220 219 222 224 225 225 225 228 231 224 219 221 220 216 214
3 4 9 13 14 12 9 12 20 29 35 38 44 54 61 62 60 60 64 75 153 186 185 180 179 185 189 190 190 191 191 194 195 193 196 202 199 185 183 190 194 197 203 207 205 204 211 219 226 227 225 222 223 228 227 227 230 226 217 216 218 217 219
4 7 14 19 18 15 11 9 13 20 25 29 37 43 48 53 52 48 50 53 54 133 174 177 179 185 189 191 190 188 189 195 197 193 196 202 200 191 193 197 192 190 202 213 214 206 206 214 223 228 228 225 226 233 235 233 237 238 236 232 225 222 223
Height
716 718 721 724 726 729 731 733 737 741 745 750 753 757 761 765 769 772 776 779 782 786 790 794 798 803 807 810 813 816 818 821 823 825 827 828 829 831 833 835 837 838 840 842 844 846 848 850 852 853 855 856 857 859 860 861 862 863 864 865 866 867 867
713 715 716 719 722 725 726 729 733 736 740 744 748 753 756 760 764 767 771 775 778 782 785 790 794 798 803 806 810 812 815 818 820 822 824 825 827 828 830 832 834 836 837 840 842 843 845 847 849 851 853 854 855 857 858 859 860 861 863 864 864 865 866
709 711 712 715 717 719 722 725 729 731 735 738 742 746 750 754 759 762 767 770 774 778 782 786 790 794 799 803 806 809 812 815 817 819 821 823 824 825 827 829 831 833 835 837 839 841 843 845 847 849 850 852 854 855 856 857 859 860 861 862 863 864 865
706 705 706 710 711 714 717 719 723 727 730 733 736 740 744 749 754 758 762 766 769 773 777 781 785 790 795 799 802 805 808 811 814 816 818 820 821 823 825 827 828 831 833 835 837 839 841 842 844 846 848 849 851 853 854 855 857 858 859 860 861 862 863
702 701 702 705 708 711 713 714 718 721 724 728 732 736 741 745 750 754 758 761 765 769 772 777 781 786 791 794 797 801 804 807 810 812 815 817 819 821 822 824 826 828 830 832 834 836 838 840 842 844 845 847 849 850 852 853 855 856 857 858 859 860 862
697 698 699 700 703 706 707 708 711 714 718 722 726 732 736 741 745 748 753 757 761 766 770 774 777 781 786 789 793 796 799 803 806 809 812 814 816 818 819 821 823 825 827 829 831 833 835 837 839 841 842 844 846 848 849 851 852 854 855 856 857 859 860
692 693 694 695 697 699 701 703 704 708 714 718 723 729 733 737 740 744 749 753 757 761 765 769 772 776 780 784 788 792 795 798 801 805 808 811 813 815 816 818 820 822 825 826 828 830 832 834 836 838 840 842 843 845 847 848 850 851 853 854 855 856 858
686 688 690 690 690 692 694 697 699 704 710 715 720 724 727 731 735 739 743 747 752 756 760 764 767 771 775 779 784 787 790 794 798 801 804 807 809 811 813 816 817 820 822 824 826 827 829 831 833 835 837 839 840 842 844 846 847 849 850 852 853 854 855
680 683 685 684 685 686 687 691 695 701 707 711 714 718 722 727 730 733 737 742 747 750 754 759 763 767 771 775 779 782 786 790 794 797 800 803 805 807 810 812 814 817 819 821 823 824 826 828 830 832 833 835 838 839 841 843 844 846 848 849 850 851 853
676 679 681 680 681 681 683 688 693 698 702 706 710 714 719 722 725 729 734 738 741 745 749 754 759 764 767 771 775 779 783 786 790 793 796 798 801 803 806 809 811 813 815 817 820 821 823 825 827 829 830 832 834 836 838 839 841 843 845 846 847 849 850
676 678 680 681 681 682 684 687 691 694 697 701 706 709 713 717 721 725 728 732 735 740 746 750 755 759 763 767 771 775 778 782 785 789 791 794 797 799 802 805 808 810 812 814 816 818 820 822 824 826 827 829 831 832 834 836 838 840 841 843 844 846 847
681 681 683 684 683 684 685 687 690 693 695 699 703 705 710 714 717 720 724 728 732 736 741 746 751 755 759 763 766 770 774 777 781 784 787 790 793 795 799 802 804 806 808 810 812 815 817 818 820 822 823 825 827 829 831 833 834 836 838 840 842 843 844
681 681 683 684 684 685 686 687 690 692 694 697 699 703 706 710 713 717 721 724 729 733 738 742 746 751 754 758 762 765 769 772 776 779 783 786 789 792 795 798 800 803 805 807 809 811 813 815 817 818 820 822 824 826 828 829 831 833 834 836 838 840 841
681 680 681 682 683 685 686 687 689 690 691 694 697 700 703 707 710 714 718 722 726 730 733 738 742 746 750 754 757 760 764 767 771 775 779 782 785 789 791 794 797 799 801 804 805 807 809 811 813 815 817 818 820 822 824 826 827 829 831 833 835 837 838
681 679 679 681 682 683 684 685 687 688 689 691 693 696 699 703 707 711 715 719 722 726 729 733 738 742 746 750 753 756 759 764 768 771 775 779 782 785 788 790 793 796 798 800 802 804 806 808 810 812 813 815 817 819 821 822 824 825 827 829 831 833 835
680 677 676 677 679 680 680 681 682 684 686 688 690 693 696 699 702 706 710 714 718 722 725 730 734 737 741 745 748 752 756 760 764 768 772 775 778 781 784 787 790 792 795 797 799 801 803 805 807 808 810 812 813 815 817 818 819 821 822 825 827 830 832
680 678 677 676 676 676 676 678 679 681 683 684 686 689 691 695 698 702 706 710 714 718 721 725 729 732 736 740 744 749 753 757 761 764 768 771 774 778 781 784 787 789 791 793 795 798 800 802 804 805 807 809 810 812 813 814 815 816 818 821 823 826 828
681 680 678 676 676 675 675 675 676 677 678 679 681 685 688 691 694 698 701 705 709 713 717 721 725 729 733 737 742 746 749 753 757 761 764 768 771 774 777 781 783 785 788 790 792 794 796 798 800 802 804 806 807 808 809 810 811 813 814 817 819 822 825
683 680 677 676 675 675 674 672 671 671 672 673 676 679 682 685 689 692 695 700 705 710 714 718 722 726 730 734 738 742 745 750 754 757 761 764 767 771 774 777 780 781 784 786 789 791 793 795 797 799 801 802 804 805 806 807 808 809 811 813 815 818 821
684 680 678 675 674 673 671 669 667 666 667 669 671 674 678 683 687 690 694 699 704 708 712 716 720 724 727 731 734 738 742 746 750 754 757 761 764 768 770 773 775 778 781 783 786 788 790 792 794 795 797 799 800 802 803 804 805 806 807 809 812 814 817
685 682 679 676 673 672 670 668 665 662 663 665 667 671 676 680 685 689 693 697 701 705 709 713 717 721 725 728 731 735 738 742 746 750 754 758 761 764 767 769 772 775 778 780 782 784 786 788 790 792 793 795 797 798 799 800 802 803 804 806 808 811 814
686 683 679 674 671 669 667 665 662 659 660 662 664 668 672 675 680 685 690 694 698 702 706 711 715 718 721 725 728 731 734 738 743 747 750 754 757 760 763 766 769 772 774 777 779 781 783 785 786 788 790 791 792 794 795 796 797 799 800 802 805 808 811
686 681 676 672 668 665 662 661 659 657 657 659 662 665 668 672 677 681 686 691 695 699 703 707 711 714 717 720 724 727 731 735 739 743 747 750 753 756 759 762 765 768 770 773 775 777 779 780 782 783 785 786 788 789 790 792 793 794 796 799 801 804 807
684 679 674 670 666 661 658 656 655 655 655 657 659 661 665 670 674 678 683 688 692 696 700 703 706 710 713 717 720 724 728 732 735 739 743 746 749 753 756 759 761 764 766 768 770 772 774 776 777 779 780 781 783 784 786 787 789 790 792 794 797 799 802
684 679 673 668 664 660 655 653 653 653 654 655 657 659 663 668 671 676 680 684 688 692 696 699 702 705 709 713 717 721 725 728 732 735 739 742 746 749 752 755 758 760 763 765 767 769 770 772 773 775 776 777 779 780 782 783 784 786 787 789 792 794 797
685 680 673 667 664 659 654 652 652 652 652 654 655 658 662 665 669 673 677 681 685 688 691 694 698 702 707 711 715 718 722 725 728 732 735 739 742 746 749 752 755 757 759 761 763 765 767 768 770 771 772 774 775 776 778 779 780 781 782 784 787 789 792
685 679 673 667 663 659 654 651 652 652 652 654 655 658 661 664 667 670 674 678 681 683 686 691 696 701 705 709 712 716 719 722 725 729 732 736 740 743 746 749 751 754 756 758 760 762 763 765 766 768 769 770 771 773 774 775 776 777 778 780 782 784 787
684 680 674 668 663 659 654 652 653 653 653 654 656 658 660 662 665 668 672 674 677 680 685 690 694 699 702 706 709 713 716 719 723 726 730 734 737 740 743 745 748 751 753 755 757 759 761 762 764 765 766 767 768 769 770 771 772 773 774 775 777 779 782
685 682 676 669 664 660 656 654 654 653 653 655 656 657 659 661 663 666 669 671 674 679 684 688 692 696 700 703 707 710 713 717 720 723 727 730 733 736 739 742 745 748 750 753 755 756 759 760 761 762 763 764 765 766 767 768 769 770 770 771 773 775 777
687 683 678 672 666 660 658 657 655 653 653 654 656 657 659 660 663 665 667 670 675 679 683 687 691 695 698 702 705 708 712 715 718 721 724 727 730 734 736 739 742 745 747 750 752 754 755 757 758 759 760 761 761 762 763 765 765 766 767 768 770 772 774
688 685 680 674 668 662 660 658 657 656 654 654 656 658 660 661 663 666 669 672 676 679 682 686 690 693 697 700 703 707 710 713 716 719 722 725 728 730 733 736 738 741 743 746 748 750 751 753 754 756 757 757 758 758 759 761 762 762 763 764 766 769 771
690 685 681 677 672 666 663 660 660 659 658 658 659 660 661 663 665 668 671 674 676 679 682 686 689 692 696 699 702 705 708 711 714 716 719 722 725 727 730 732 735 737 739 742 744 745 747 748 750 751 753 754 754 755 756 756 757 758 759 760 762 765 767
692 687 684 680 676 672 668 665 663 662 661 661 661 661 663 665 667 669 672 674 677 680 683 685 689 692 695 697 700 703 706 708 711 714 716 719 721 724 726 728 731 733 735 737 739 740 742 744 745 746 748 749 751 751 752 752 754 755 756 757 759 761 763
694 690 687 683 679 676 673 671 669 666 664 664 664 664 666 667 669 671 674 675 678 680 683 685 688 691 694 696 699 702 704 706 709 711 713 715 718 720 722 724 726 728 730 732 734 735 737 739 740 742 743 744 746 747 748 749 750 751 753 755 756 758 760
697 693 690 686 683 680 678 676 674 671 669 668 668 668 669 670 672 674 675 677 679 681 683 685 688 690 693 696 698 700 703 705 707 709 710 713 715 717 719 720 722 724 726 729 731 732 733 734 735 738 739 740 742 743 744 745 746 748 750 752 754 756 757
699 696 693 690 688 684 682 680 678 676 674 673 672 672 672 673 675 675 677 678 680 681 683 685 687 690 692 694 696 699 701 703 705 707 709 710 712 715 716 718 720 721 724 726 727 729 731 732 733 735 736 737 739 740 741 743 744 746 748 750 752 754 756
702 700 698 695 692 689 687 684 682 680 678 677 676 676 676 677 678 678 679 680 680 682 683 685 687 689 691 693 695 697 699 702 703 705 707 709 711 713 715 717 719 721 722 724 725 727 729 731 732 733 734 736 738 739 740 742 744 745 747 749 751 753 755
706 704 701 698 696 694 692 689 687 685 683 681 680 679 679 680 681 682 682 681 681 682 682 684 686 688 689 691 694 696 698 701 702 703 706 708 710 712 714 717 719 720 722 723 724 726 728 729 731 732 734 735 737 738 739 741 743 745 747 748 750 752 753